Zurück zum Katalog

ECHO 2 DEB

METAL OBJ

AktivPO
NORAD 742·DEBRIS·🇺🇸 United States

Gestartet Jan 25, 1964 von Vandenberg Space Force Base

Loading…

Nächste Überflüge (nächste 24 Stunden)

TLE

AktuellSource: Space-Track

Epoche: Sep 14, 2026, 05:22 UTC

1 00742U 64004C   26257.22401097  .00000080  00000-0  14868-3 0  9992
2 00742  81.4709 341.2847 0170290 261.2426  96.9381 13.26297821 29160

Verfolge ECHO 2 DEB in Echtzeit mit AllMySat

Download on the App Store